���͔��d,,,
,,,
DATE,TIME,�z��l(MWh),���ђl(MWh)
2021/4/1,0:00,4,6
2021/4/1,0:30,5,5
2021/4/1,1:00,5,3
2021/4/1,1:30,5,4
2021/4/1,2:00,5,7
2021/4/1,2:30,5,9
2021/4/1,3:00,5,12
2021/4/1,3:30,5,11
2021/4/1,4:00,5,9
2021/4/1,4:30,5,7
2021/4/1,5:00,5,6
2021/4/1,5:30,5,10
2021/4/1,6:00,5,12
2021/4/1,6:30,5,11
2021/4/1,7:00,5,9
2021/4/1,7:30,5,9
2021/4/1,8:00,5,7
2021/4/1,8:30,5,4
2021/4/1,9:00,5,3
2021/4/1,9:30,5,3
2021/4/1,10:00,5,4
2021/4/1,10:30,6,6
2021/4/1,11:00,6,7
2021/4/1,11:30,7,8
2021/4/1,12:00,8,8
2021/4/1,12:30,9,9
2021/4/1,13:00,9,9
2021/4/1,13:30,10,6
2021/4/1,14:00,11,5
2021/4/1,14:30,12,7
2021/4/1,15:00,13,7
2021/4/1,15:30,12,3
2021/4/1,16:00,11,4
2021/4/1,16:30,11,7
2021/4/1,17:00,10,9
2021/4/1,17:30,9,10
2021/4/1,18:00,8,14
2021/4/1,18:30,8,15
2021/4/1,19:00,8,16
2021/4/1,19:30,9,18
2021/4/1,20:00,9,22
2021/4/1,20:30,9,26
2021/4/1,21:00,10,29
2021/4/1,21:30,11,29
2021/4/1,22:00,12,30
2021/4/1,22:30,13,30
2021/4/1,23:00,14,27
2021/4/1,23:30,15,26
2021/4/2,0:00,19,22
2021/4/2,0:30,19,21
2021/4/2,1:00,19,26
2021/4/2,1:30,18,29
2021/4/2,2:00,17,33
2021/4/2,2:30,16,37
2021/4/2,3:00,15,43
2021/4/2,3:30,14,45
2021/4/2,4:00,15,47
2021/4/2,4:30,17,47
2021/4/2,5:00,18,48
2021/4/2,5:30,20,46
2021/4/2,6:00,21,46
2021/4/2,6:30,22,47
2021/4/2,7:00,23,45
2021/4/2,7:30,25,44
2021/4/2,8:00,26,45
2021/4/2,8:30,29,45
2021/4/2,9:00,31,47
2021/4/2,9:30,33,52
2021/4/2,10:00,35,52
2021/4/2,10:30,36,55
2021/4/2,11:00,38,58
2021/4/2,11:30,40,55
2021/4/2,12:00,42,56
2021/4/2,12:30,43,56
2021/4/2,13:00,45,58
2021/4/2,13:30,47,59
2021/4/2,14:00,48,61
2021/4/2,14:30,48,59
2021/4/2,15:00,48,60
2021/4/2,15:30,47,57
2021/4/2,16:00,45,60
2021/4/2,16:30,42,60
2021/4/2,17:00,40,60
2021/4/2,17:30,38,60
2021/4/2,18:00,36,60
2021/4/2,18:30,36,63
2021/4/2,19:00,36,60
2021/4/2,19:30,37,62
2021/4/2,20:00,38,64
2021/4/2,20:30,39,59
2021/4/2,21:00,41,56
2021/4/2,21:30,42,56
2021/4/2,22:00,43,54
2021/4/2,22:30,43,54
2021/4/2,23:00,43,53
2021/4/2,23:30,43,55
2021/4/3,0:00,56,49
2021/4/3,0:30,54,48
2021/4/3,1:00,52,44
2021/4/3,1:30,50,45
2021/4/3,2:00,48,48
2021/4/3,2:30,46,51
2021/4/3,3:00,45,44
2021/4/3,3:30,44,43
2021/4/3,4:00,42,42
2021/4/3,4:30,41,45
2021/4/3,5:00,41,43
2021/4/3,5:30,41,44
2021/4/3,6:00,40,48
2021/4/3,6:30,40,51
2021/4/3,7:00,40,52
2021/4/3,7:30,40,48
2021/4/3,8:00,41,50
2021/4/3,8:30,42,46
2021/4/3,9:00,43,43
2021/4/3,9:30,43,43
2021/4/3,10:00,45,45
2021/4/3,10:30,47,45
2021/4/3,11:00,49,46
2021/4/3,11:30,50,46
2021/4/3,12:00,51,48
2021/4/3,12:30,51,48
2021/4/3,13:00,51,47
2021/4/3,13:30,51,45
2021/4/3,14:00,50,49
2021/4/3,14:30,49,51
2021/4/3,15:00,48,56
2021/4/3,15:30,47,58
2021/4/3,16:00,47,58
2021/4/3,16:30,46,53
2021/4/3,17:00,45,56
2021/4/3,17:30,44,55
2021/4/3,18:00,43,48
2021/4/3,18:30,43,50
2021/4/3,19:00,43,57
2021/4/3,19:30,43,58
2021/4/3,20:00,43,54
2021/4/3,20:30,42,53
2021/4/3,21:00,42,53
2021/4/3,21:30,41,56
2021/4/3,22:00,40,56
2021/4/3,22:30,38,57
2021/4/3,23:00,36,60
2021/4/3,23:30,35,62
2021/4/4,0:00,57,65
2021/4/4,0:30,56,65
2021/4/4,1:00,55,64
2021/4/4,1:30,55,60
2021/4/4,2:00,55,64
2021/4/4,2:30,55,66
2021/4/4,3:00,55,64
2021/4/4,3:30,54,59
2021/4/4,4:00,54,58
2021/4/4,4:30,52,56
2021/4/4,5:00,51,54
2021/4/4,5:30,51,56
2021/4/4,6:00,50,56
2021/4/4,6:30,50,54
2021/4/4,7:00,49,53
2021/4/4,7:30,49,54
2021/4/4,8:00,49,55
2021/4/4,8:30,49,54
2021/4/4,9:00,49,52
2021/4/4,9:30,49,53
2021/4/4,10:00,49,56
2021/4/4,10:30,49,56
2021/4/4,11:00,49,56
2021/4/4,11:30,49,52
2021/4/4,12:00,48,46
2021/4/4,12:30,45,35
2021/4/4,13:00,39,33
2021/4/4,13:30,29,38
2021/4/4,14:00,23,38
2021/4/4,14:30,22,35
2021/4/4,15:00,22,34
2021/4/4,15:30,24,33
2021/4/4,16:00,25,28
2021/4/4,16:30,25,29
2021/4/4,17:00,26,37
2021/4/4,17:30,29,37
2021/4/4,18:00,32,41
2021/4/4,18:30,37,45
2021/4/4,19:00,40,55
2021/4/4,19:30,42,60
2021/4/4,20:00,44,59
2021/4/4,20:30,47,57
2021/4/4,21:00,50,60
2021/4/4,21:30,53,67
2021/4/4,22:00,56,71
2021/4/4,22:30,59,78
2021/4/4,23:00,62,76
2021/4/4,23:30,65,76
2021/4/5,0:00,87,79
2021/4/5,0:30,89,79
2021/4/5,1:00,91,79
2021/4/5,1:30,91,78
2021/4/5,2:00,92,80
2021/4/5,2:30,92,82
2021/4/5,3:00,92,85
2021/4/5,3:30,91,81
2021/4/5,4:00,90,78
2021/4/5,4:30,89,78
2021/4/5,5:00,87,77
2021/4/5,5:30,85,77
2021/4/5,6:00,84,77
2021/4/5,6:30,84,79
2021/4/5,7:00,83,77
2021/4/5,7:30,83,72
2021/4/5,8:00,82,71
2021/4/5,8:30,82,71
2021/4/5,9:00,81,71
2021/4/5,9:30,81,77
2021/4/5,10:00,82,79
2021/4/5,10:30,85,78
2021/4/5,11:00,87,77
2021/4/5,11:30,86,77
2021/4/5,12:00,85,77
2021/4/5,12:30,84,75
2021/4/5,13:00,82,71
2021/4/5,13:30,81,68
2021/4/5,14:00,81,68
2021/4/5,14:30,80,60
2021/4/5,15:00,79,54
2021/4/5,15:30,78,53
2021/4/5,16:00,76,53
2021/4/5,16:30,72,50
2021/4/5,17:00,70,47
2021/4/5,17:30,68,49
2021/4/5,18:00,67,50
2021/4/5,18:30,67,51
2021/4/5,19:00,67,53
2021/4/5,19:30,65,49
2021/4/5,20:00,64,47
2021/4/5,20:30,63,46
2021/4/5,21:00,62,45
2021/4/5,21:30,63,42
2021/4/5,22:00,63,42
2021/4/5,22:30,65,43
2021/4/5,23:00,65,40
2021/4/5,23:30,63,34
2021/4/6,0:00,48,29
2021/4/6,0:30,46,26
2021/4/6,1:00,44,24
2021/4/6,1:30,43,23
2021/4/6,2:00,41,23
2021/4/6,2:30,40,23
2021/4/6,3:00,39,22
2021/4/6,3:30,38,21
2021/4/6,4:00,36,19
2021/4/6,4:30,34,17
2021/4/6,5:00,32,17
2021/4/6,5:30,29,16
2021/4/6,6:00,26,15
2021/4/6,6:30,23,14
2021/4/6,7:00,21,17
2021/4/6,7:30,20,18
2021/4/6,8:00,18,16
2021/4/6,8:30,17,14
2021/4/6,9:00,16,10
2021/4/6,9:30,14,8
2021/4/6,10:00,14,10
2021/4/6,10:30,14,8
2021/4/6,11:00,14,7
2021/4/6,11:30,13,4
2021/4/6,12:00,13,4
2021/4/6,12:30,12,2
2021/4/6,13:00,11,2
2021/4/6,13:30,9,1
2021/4/6,14:00,8,1
2021/4/6,14:30,6,2
2021/4/6,15:00,5,2
2021/4/6,15:30,4,3
2021/4/6,16:00,3,4
2021/4/6,16:30,3,4
2021/4/6,17:00,3,3
2021/4/6,17:30,3,7
2021/4/6,18:00,3,9
2021/4/6,18:30,3,12
2021/4/6,19:00,3,12
2021/4/6,19:30,4,16
2021/4/6,20:00,4,15
2021/4/6,20:30,5,17
2021/4/6,21:00,5,24
2021/4/6,21:30,5,25
2021/4/6,22:00,6,26
2021/4/6,22:30,6,31
2021/4/6,23:00,7,37
2021/4/6,23:30,7,39
2021/4/7,0:00,26,37
2021/4/7,0:30,27,40
2021/4/7,1:00,28,43
2021/4/7,1:30,30,53
2021/4/7,2:00,31,57
2021/4/7,2:30,32,59
2021/4/7,3:00,34,60
2021/4/7,3:30,35,56
2021/4/7,4:00,36,50
2021/4/7,4:30,37,43
2021/4/7,5:00,36,40
2021/4/7,5:30,35,37
2021/4/7,6:00,33,30
2021/4/7,6:30,31,26
2021/4/7,7:00,29,24
2021/4/7,7:30,27,22
2021/4/7,8:00,27,18
2021/4/7,8:30,26,15
2021/4/7,9:00,27,15
2021/4/7,9:30,28,16
2021/4/7,10:00,30,16
2021/4/7,10:30,31,14
2021/4/7,11:00,33,13
2021/4/7,11:30,34,11
2021/4/7,12:00,36,12
2021/4/7,12:30,38,14
2021/4/7,13:00,40,17
2021/4/7,13:30,42,18
2021/4/7,14:00,45,22
2021/4/7,14:30,48,26
2021/4/7,15:00,52,34
2021/4/7,15:30,56,38
2021/4/7,16:00,60,40
2021/4/7,16:30,62,41
2021/4/7,17:00,62,45
2021/4/7,17:30,60,48
2021/4/7,18:00,57,43
2021/4/7,18:30,52,43
2021/4/7,19:00,47,37
2021/4/7,19:30,42,33
2021/4/7,20:00,39,30
2021/4/7,20:30,37,30
2021/4/7,21:00,35,28
2021/4/7,21:30,32,27
2021/4/7,22:00,29,29
2021/4/7,22:30,25,26
2021/4/7,23:00,21,23
2021/4/7,23:30,18,21
2021/4/8,0:00,15,20
2021/4/8,0:30,14,16
2021/4/8,1:00,12,13
2021/4/8,1:30,10,9
2021/4/8,2:00,9,4
2021/4/8,2:30,8,2
2021/4/8,3:00,7,3
2021/4/8,3:30,7,6
2021/4/8,4:00,7,5
2021/4/8,4:30,6,4
2021/4/8,5:00,6,3
2021/4/8,5:30,6,2
2021/4/8,6:00,6,1
2021/4/8,6:30,5,1
2021/4/8,7:00,5,1
2021/4/8,7:30,5,0
2021/4/8,8:00,4,0
2021/4/8,8:30,4,0
2021/4/8,9:00,4,0
2021/4/8,9:30,4,0
2021/4/8,10:00,4,0
2021/4/8,10:30,4,0
2021/4/8,11:00,5,0
2021/4/8,11:30,6,0
2021/4/8,12:00,6,0
2021/4/8,12:30,6,1
2021/4/8,13:00,6,2
2021/4/8,13:30,6,1
2021/4/8,14:00,5,1
2021/4/8,14:30,6,1
2021/4/8,15:00,6,1
2021/4/8,15:30,7,1
2021/4/8,16:00,8,1
2021/4/8,16:30,8,1
2021/4/8,17:00,8,1
2021/4/8,17:30,9,3
2021/4/8,18:00,9,5
2021/4/8,18:30,10,6
2021/4/8,19:00,11,8
2021/4/8,19:30,13,11
2021/4/8,20:00,15,13
2021/4/8,20:30,18,18
2021/4/8,21:00,21,21
2021/4/8,21:30,25,23
2021/4/8,22:00,28,25
2021/4/8,22:30,29,25
2021/4/8,23:00,30,24
2021/4/8,23:30,29,20
2021/4/9,0:00,41,23
2021/4/9,0:30,42,25
2021/4/9,1:00,42,26
2021/4/9,1:30,41,31
2021/4/9,2:00,40,30
2021/4/9,2:30,39,27
2021/4/9,3:00,38,25
2021/4/9,3:30,37,26
2021/4/9,4:00,37,29
2021/4/9,4:30,36,29
2021/4/9,5:00,36,26
2021/4/9,5:30,36,28
2021/4/9,6:00,35,28
2021/4/9,6:30,35,26
2021/4/9,7:00,36,24
2021/4/9,7:30,37,24
2021/4/9,8:00,38,20
2021/4/9,8:30,40,21
2021/4/9,9:00,40,20
2021/4/9,9:30,41,19
2021/4/9,10:00,42,21
2021/4/9,10:30,43,22
2021/4/9,11:00,43,24
2021/4/9,11:30,43,24
2021/4/9,12:00,43,23
2021/4/9,12:30,42,23
2021/4/9,13:00,42,20
2021/4/9,13:30,42,14
2021/4/9,14:00,41,13
2021/4/9,14:30,41,14
2021/4/9,15:00,40,13
2021/4/9,15:30,39,15
2021/4/9,16:00,38,15
2021/4/9,16:30,38,16
2021/4/9,17:00,37,21
2021/4/9,17:30,36,20
2021/4/9,18:00,35,18
2021/4/9,18:30,34,23
2021/4/9,19:00,34,30
2021/4/9,19:30,34,31
2021/4/9,20:00,35,28
2021/4/9,20:30,35,32
2021/4/9,21:00,35,37
2021/4/9,21:30,35,36
2021/4/9,22:00,34,35
2021/4/9,22:30,34,35
2021/4/9,23:00,33,37
2021/4/9,23:30,33,40
2021/4/10,0:00,37,43
2021/4/10,0:30,36,44
2021/4/10,1:00,35,47
2021/4/10,1:30,35,50
2021/4/10,2:00,34,51
2021/4/10,2:30,34,48
2021/4/10,3:00,34,43
2021/4/10,3:30,33,40
2021/4/10,4:00,33,39
2021/4/10,4:30,33,38
2021/4/10,5:00,33,39
2021/4/10,5:30,32,40
2021/4/10,6:00,31,41
2021/4/10,6:30,31,40
2021/4/10,7:00,31,36
2021/4/10,7:30,32,32
2021/4/10,8:00,32,30
2021/4/10,8:30,30,30
2021/4/10,9:00,29,26
2021/4/10,9:30,29,25
2021/4/10,10:00,28,26
2021/4/10,10:30,28,27
2021/4/10,11:00,28,26
2021/4/10,11:30,29,27
2021/4/10,12:00,29,25
2021/4/10,12:30,29,27
2021/4/10,13:00,29,28
2021/4/10,13:30,29,23
2021/4/10,14:00,29,22
2021/4/10,14:30,29,22
2021/4/10,15:00,28,22
2021/4/10,15:30,27,19
2021/4/10,16:00,25,20
2021/4/10,16:30,22,18
2021/4/10,17:00,20,17
2021/4/10,17:30,18,14
2021/4/10,18:00,16,8
2021/4/10,18:30,15,7
2021/4/10,19:00,14,6
2021/4/10,19:30,13,4
2021/4/10,20:00,11,3
2021/4/10,20:30,10,2
2021/4/10,21:00,9,2
2021/4/10,21:30,9,1
2021/4/10,22:00,9,1
2021/4/10,22:30,8,2
2021/4/10,23:00,8,3
2021/4/10,23:30,9,3
2021/4/11,0:00,9,3
2021/4/11,0:30,9,3
2021/4/11,1:00,10,3
2021/4/11,1:30,10,2
2021/4/11,2:00,9,2
2021/4/11,2:30,9,1
2021/4/11,3:00,8,1
2021/4/11,3:30,8,1
2021/4/11,4:00,7,1
2021/4/11,4:30,7,1
2021/4/11,5:00,7,3
2021/4/11,5:30,7,4
2021/4/11,6:00,7,4
2021/4/11,6:30,7,4
2021/4/11,7:00,7,3
2021/4/11,7:30,6,3
2021/4/11,8:00,5,2
2021/4/11,8:30,5,1
2021/4/11,9:00,5,1
2021/4/11,9:30,6,1
2021/4/11,10:00,7,1
2021/4/11,10:30,8,1
2021/4/11,11:00,10,3
2021/4/11,11:30,11,4
2021/4/11,12:00,13,4
2021/4/11,12:30,14,4
2021/4/11,13:00,15,5
2021/4/11,13:30,16,4
2021/4/11,14:00,16,4
2021/4/11,14:30,16,4
2021/4/11,15:00,15,4
2021/4/11,15:30,15,3
2021/4/11,16:00,14,5
2021/4/11,16:30,13,9
2021/4/11,17:00,12,11
2021/4/11,17:30,12,12
2021/4/11,18:00,12,13
2021/4/11,18:30,12,17
2021/4/11,19:00,13,24
2021/4/11,19:30,13,25
2021/4/11,20:00,14,28
2021/4/11,20:30,14,36
2021/4/11,21:00,15,39
2021/4/11,21:30,15,35
2021/4/11,22:00,16,36
2021/4/11,22:30,18,36
2021/4/11,23:00,19,36
2021/4/11,23:30,21,34
2021/4/12,0:00,18,30
2021/4/12,0:30,19,29
2021/4/12,1:00,19,28
2021/4/12,1:30,20,25
2021/4/12,2:00,20,26
2021/4/12,2:30,21,31
2021/4/12,3:00,22,33
2021/4/12,3:30,23,30
2021/4/12,4:00,24,27
2021/4/12,4:30,25,29
2021/4/12,5:00,27,31
2021/4/12,5:30,28,29
2021/4/12,6:00,30,28
2021/4/12,6:30,33,31
2021/4/12,7:00,36,34
2021/4/12,7:30,42,34
2021/4/12,8:00,47,35
2021/4/12,8:30,53,35
2021/4/12,9:00,57,36
2021/4/12,9:30,60,38
2021/4/12,10:00,62,36
2021/4/12,10:30,65,44
2021/4/12,11:00,67,44
2021/4/12,11:30,69,44
2021/4/12,12:00,71,49
2021/4/12,12:30,71,48
2021/4/12,13:00,72,52
2021/4/12,13:30,72,60
2021/4/12,14:00,73,66
2021/4/12,14:30,73,69
2021/4/12,15:00,72,68
2021/4/12,15:30,72,71
2021/4/12,16:00,71,71
2021/4/12,16:30,70,74
2021/4/12,17:00,69,78
2021/4/12,17:30,67,78
2021/4/12,18:00,65,76
2021/4/12,18:30,66,77
2021/4/12,19:00,66,80
2021/4/12,19:30,66,80
2021/4/12,20:00,66,80
2021/4/12,20:30,66,79
2021/4/12,21:00,67,78
2021/4/12,21:30,68,79
2021/4/12,22:00,69,80
2021/4/12,22:30,70,80
2021/4/12,23:00,71,79
2021/4/12,23:30,72,78
2021/4/13,0:00,83,78
2021/4/13,0:30,82,76
2021/4/13,1:00,82,77
2021/4/13,1:30,81,76
2021/4/13,2:00,81,74
2021/4/13,2:30,81,72
2021/4/13,3:00,82,71
2021/4/13,3:30,84,73
2021/4/13,4:00,85,73
2021/4/13,4:30,84,76
2021/4/13,5:00,83,77
2021/4/13,5:30,82,76
2021/4/13,6:00,81,76
2021/4/13,6:30,81,73
2021/4/13,7:00,80,72
2021/4/13,7:30,80,71
2021/4/13,8:00,79,71
2021/4/13,8:30,79,71
2021/4/13,9:00,78,74
2021/4/13,9:30,77,73
2021/4/13,10:00,76,73
2021/4/13,10:30,74,73
2021/4/13,11:00,73,74
2021/4/13,11:30,73,69
2021/4/13,12:00,74,65
2021/4/13,12:30,77,70
2021/4/13,13:00,74,67
2021/4/13,13:30,62,66
2021/4/13,14:00,48,60
2021/4/13,14:30,32,51
2021/4/13,15:00,25,45
2021/4/13,15:30,29,26
2021/4/13,16:00,32,19
2021/4/13,16:30,32,25
2021/4/13,17:00,34,32
2021/4/13,17:30,36,29
2021/4/13,18:00,38,33
2021/4/13,18:30,38,36
2021/4/13,19:00,38,30
2021/4/13,19:30,37,28
2021/4/13,20:00,38,21
2021/4/13,20:30,39,20
2021/4/13,21:00,40,24
2021/4/13,21:30,42,34
2021/4/13,22:00,45,39
2021/4/13,22:30,49,53
2021/4/13,23:00,52,60
2021/4/13,23:30,54,63
2021/4/14,0:00,64,63
2021/4/14,0:30,65,67
2021/4/14,1:00,66,67
2021/4/14,1:30,68,63
2021/4/14,2:00,69,66
2021/4/14,2:30,69,67
2021/4/14,3:00,68,67
2021/4/14,3:30,67,70
2021/4/14,4:00,67,72
2021/4/14,4:30,68,67
2021/4/14,5:00,69,73
2021/4/14,5:30,71,75
2021/4/14,6:00,72,78
2021/4/14,6:30,72,80
2021/4/14,7:00,72,80
2021/4/14,7:30,72,78
2021/4/14,8:00,73,77
2021/4/14,8:30,73,84
2021/4/14,9:00,74,84
2021/4/14,9:30,74,81
2021/4/14,10:00,74,75
2021/4/14,10:30,73,77
2021/4/14,11:00,72,79
2021/4/14,11:30,72,79
2021/4/14,12:00,72,82
2021/4/14,12:30,73,81
2021/4/14,13:00,74,83
2021/4/14,13:30,76,87
2021/4/14,14:00,79,85
2021/4/14,14:30,83,85
2021/4/14,15:00,85,86
2021/4/14,15:30,86,87
2021/4/14,16:00,85,89
2021/4/14,16:30,84,91
2021/4/14,17:00,82,91
2021/4/14,17:30,78,93
2021/4/14,18:00,73,92
2021/4/14,18:30,68,90
2021/4/14,19:00,64,86
2021/4/14,19:30,62,82
2021/4/14,20:00,59,80
2021/4/14,20:30,58,72
2021/4/14,21:00,56,68
2021/4/14,21:30,54,63
2021/4/14,22:00,51,59
2021/4/14,22:30,48,57
2021/4/14,23:00,45,63
2021/4/14,23:30,43,58
2021/4/15,0:00,49,49
2021/4/15,0:30,48,53
2021/4/15,1:00,47,50
2021/4/15,1:30,46,51
2021/4/15,2:00,44,51
2021/4/15,2:30,41,45
2021/4/15,3:00,38,43
2021/4/15,3:30,35,46
2021/4/15,4:00,32,49
2021/4/15,4:30,29,47
2021/4/15,5:00,26,36
2021/4/15,5:30,25,30
2021/4/15,6:00,24,27
2021/4/15,6:30,24,27
2021/4/15,7:00,23,25
2021/4/15,7:30,22,20
2021/4/15,8:00,21,17
2021/4/15,8:30,19,14
2021/4/15,9:00,17,14
2021/4/15,9:30,16,12
2021/4/15,10:00,14,8
2021/4/15,10:30,13,5
2021/4/15,11:00,12,4
2021/4/15,11:30,11,3
2021/4/15,12:00,11,2
2021/4/15,12:30,11,2
2021/4/15,13:00,11,4
2021/4/15,13:30,10,7
2021/4/15,14:00,10,8
2021/4/15,14:30,8,10
2021/4/15,15:00,7,10
2021/4/15,15:30,7,8
2021/4/15,16:00,6,9
2021/4/15,16:30,6,11
2021/4/15,17:00,6,11
2021/4/15,17:30,6,12
2021/4/15,18:00,7,14
2021/4/15,18:30,8,17
2021/4/15,19:00,10,24
2021/4/15,19:30,12,34
2021/4/15,20:00,15,41
2021/4/15,20:30,17,40
2021/4/15,21:00,19,43
2021/4/15,21:30,21,44
2021/4/15,22:00,23,38
2021/4/15,22:30,24,42
2021/4/15,23:00,24,38
2021/4/15,23:30,22,30
2021/4/16,0:00,17,25
2021/4/16,0:30,15,19
2021/4/16,1:00,14,18
2021/4/16,1:30,13,17
2021/4/16,2:00,12,16
2021/4/16,2:30,11,21
2021/4/16,3:00,11,24
2021/4/16,3:30,10,21
2021/4/16,4:00,9,22
2021/4/16,4:30,9,23
2021/4/16,5:00,8,31
2021/4/16,5:30,8,38
2021/4/16,6:00,8,32
2021/4/16,6:30,9,26
2021/4/16,7:00,9,20
2021/4/16,7:30,11,17
2021/4/16,8:00,12,16
2021/4/16,8:30,12,14
2021/4/16,9:00,13,15
2021/4/16,9:30,16,19
2021/4/16,10:00,20,14
2021/4/16,10:30,23,13
2021/4/16,11:00,27,14
2021/4/16,11:30,31,15
2021/4/16,12:00,34,16
2021/4/16,12:30,35,20
2021/4/16,13:00,36,19
2021/4/16,13:30,36,14
2021/4/16,14:00,36,11
2021/4/16,14:30,35,10
2021/4/16,15:00,33,12
2021/4/16,15:30,32,12
2021/4/16,16:00,31,16
2021/4/16,16:30,31,27
2021/4/16,17:00,31,27
2021/4/16,17:30,29,26
2021/4/16,18:00,29,24
2021/4/16,18:30,30,25
2021/4/16,19:00,32,21
2021/4/16,19:30,34,25
2021/4/16,20:00,36,29
2021/4/16,20:30,37,29
2021/4/16,21:00,37,29
2021/4/16,21:30,38,28
2021/4/16,22:00,38,30
2021/4/16,22:30,40,32
2021/4/16,23:00,41,33
2021/4/16,23:30,43,30
2021/4/17,0:00,38,24
2021/4/17,0:30,39,23
2021/4/17,1:00,39,20
2021/4/17,1:30,38,14
2021/4/17,2:00,37,18
2021/4/17,2:30,36,18
2021/4/17,3:00,36,16
2021/4/17,3:30,36,16
2021/4/17,4:00,37,12
2021/4/17,4:30,39,18
2021/4/17,5:00,40,14
2021/4/17,5:30,42,11
2021/4/17,6:00,44,10
2021/4/17,6:30,46,8
2021/4/17,7:00,47,6
2021/4/17,7:30,49,3
2021/4/17,8:00,47,1
2021/4/17,8:30,42,0
2021/4/17,9:00,36,1
2021/4/17,9:30,32,6
2021/4/17,10:00,30,18
2021/4/17,10:30,34,27
2021/4/17,11:00,33,26
2021/4/17,11:30,27,34
2021/4/17,12:00,25,36
2021/4/17,12:30,29,31
2021/4/17,13:00,29,21
2021/4/17,13:30,21,12
2021/4/17,14:00,15,8
2021/4/17,14:30,10,2
2021/4/17,15:00,8,0
2021/4/17,15:30,8,0
2021/4/17,16:00,8,0
2021/4/17,16:30,8,1
2021/4/17,17:00,9,2
2021/4/17,17:30,13,2
2021/4/17,18:00,18,2
2021/4/17,18:30,25,4
2021/4/17,19:00,33,10
2021/4/17,19:30,43,18
2021/4/17,20:00,52,27
2021/4/17,20:30,58,40
2021/4/17,21:00,61,56
2021/4/17,21:30,62,65
2021/4/17,22:00,62,64
2021/4/17,22:30,60,69
2021/4/17,23:00,62,67
2021/4/17,23:30,66,73
2021/4/18,0:00,67,77
2021/4/18,0:30,69,77
2021/4/18,1:00,70,76
2021/4/18,1:30,71,77
2021/4/18,2:00,71,76
2021/4/18,2:30,71,76
2021/4/18,3:00,70,70
2021/4/18,3:30,70,70
2021/4/18,4:00,69,68
2021/4/18,4:30,68,69
2021/4/18,5:00,67,69
2021/4/18,5:30,65,72
2021/4/18,6:00,64,72
2021/4/18,6:30,63,73
2021/4/18,7:00,63,68
2021/4/18,7:30,63,68
2021/4/18,8:00,62,69
2021/4/18,8:30,62,69
2021/4/18,9:00,61,70
2021/4/18,9:30,61,72
2021/4/18,10:00,61,71
2021/4/18,10:30,61,71
2021/4/18,11:00,61,73
2021/4/18,11:30,60,73
2021/4/18,12:00,61,75
2021/4/18,12:30,61,74
2021/4/18,13:00,64,75
2021/4/18,13:30,67,82
2021/4/18,14:00,71,84
2021/4/18,14:30,74,83
2021/4/18,15:00,76,83
2021/4/18,15:30,77,83
2021/4/18,16:00,77,82
2021/4/18,16:30,77,81
2021/4/18,17:00,75,83
2021/4/18,17:30,73,83
2021/4/18,18:00,69,81
2021/4/18,18:30,63,78
2021/4/18,19:00,57,71
2021/4/18,19:30,52,66
2021/4/18,20:00,47,59
2021/4/18,20:30,42,57
2021/4/18,21:00,37,54
2021/4/18,21:30,33,48
2021/4/18,22:00,29,40
2021/4/18,22:30,25,27
2021/4/18,23:00,21,24
2021/4/18,23:30,19,18
2021/4/19,0:00,26,20
2021/4/19,0:30,24,26
2021/4/19,1:00,22,27
2021/4/19,1:30,21,29
2021/4/19,2:00,19,27
2021/4/19,2:30,17,24
2021/4/19,3:00,15,24
2021/4/19,3:30,14,23
2021/4/19,4:00,13,21
2021/4/19,4:30,12,21
2021/4/19,5:00,11,20
2021/4/19,5:30,10,21
2021/4/19,6:00,9,24
2021/4/19,6:30,8,24
2021/4/19,7:00,7,21
2021/4/19,7:30,7,18
2021/4/19,8:00,8,16
2021/4/19,8:30,9,17
2021/4/19,9:00,10,15
2021/4/19,9:30,11,14
2021/4/19,10:00,12,14
2021/4/19,10:30,13,14
2021/4/19,11:00,13,13
2021/4/19,11:30,13,18
2021/4/19,12:00,12,21
2021/4/19,12:30,12,23
2021/4/19,13:00,11,25
2021/4/19,13:30,11,25
2021/4/19,14:00,11,23
2021/4/19,14:30,11,22
2021/4/19,15:00,12,20
2021/4/19,15:30,12,20
2021/4/19,16:00,12,19
2021/4/19,16:30,12,19
2021/4/19,17:00,13,13
2021/4/19,17:30,12,11
2021/4/19,18:00,12,9
2021/4/19,18:30,11,8
2021/4/19,19:00,10,7
2021/4/19,19:30,9,7
2021/4/19,20:00,9,5
2021/4/19,20:30,8,7
2021/4/19,21:00,8,9
2021/4/19,21:30,8,7
2021/4/19,22:00,8,6
2021/4/19,22:30,7,5
2021/4/19,23:00,7,5
2021/4/19,23:30,7,6
2021/4/20,0:00,7,6
2021/4/20,0:30,7,8
2021/4/20,1:00,8,8
2021/4/20,1:30,8,10
2021/4/20,2:00,8,10
2021/4/20,2:30,8,10
2021/4/20,3:00,8,16
2021/4/20,3:30,8,21
2021/4/20,4:00,9,25
2021/4/20,4:30,9,25
2021/4/20,5:00,9,24
2021/4/20,5:30,9,21
2021/4/20,6:00,9,17
2021/4/20,6:30,8,13
2021/4/20,7:00,8,11
2021/4/20,7:30,8,7
2021/4/20,8:00,9,4
2021/4/20,8:30,10,3
2021/4/20,9:00,11,3
2021/4/20,9:30,11,3
2021/4/20,10:00,12,2
2021/4/20,10:30,13,1
2021/4/20,11:00,13,1
2021/4/20,11:30,14,1
2021/4/20,12:00,14,1
2021/4/20,12:30,15,1
2021/4/20,13:00,15,1
2021/4/20,13:30,14,2
2021/4/20,14:00,14,2
2021/4/20,14:30,14,4
2021/4/20,15:00,14,5
2021/4/20,15:30,13,5
2021/4/20,16:00,13,6
2021/4/20,16:30,11,4
2021/4/20,17:00,10,4
2021/4/20,17:30,9,5
2021/4/20,18:00,8,5
2021/4/20,18:30,7,3
2021/4/20,19:00,7,2
2021/4/20,19:30,7,1
2021/4/20,20:00,8,1
2021/4/20,20:30,9,0
2021/4/20,21:00,9,0
2021/4/20,21:30,10,0
2021/4/20,22:00,10,0
2021/4/20,22:30,11,1
2021/4/20,23:00,11,3
2021/4/20,23:30,11,3
2021/4/21,0:00,7,3
2021/4/21,0:30,7,3
2021/4/21,1:00,7,2
2021/4/21,1:30,8,3
2021/4/21,2:00,8,5
2021/4/21,2:30,8,10
2021/4/21,3:00,8,14
2021/4/21,3:30,8,12
2021/4/21,4:00,8,11
2021/4/21,4:30,8,14
2021/4/21,5:00,8,13
2021/4/21,5:30,7,12
2021/4/21,6:00,7,11
2021/4/21,6:30,6,9
2021/4/21,7:00,6,9
2021/4/21,7:30,6,9
2021/4/21,8:00,7,8
2021/4/21,8:30,8,6
2021/4/21,9:00,8,6
2021/4/21,9:30,7,4
2021/4/21,10:00,7,5
2021/4/21,10:30,7,6
2021/4/21,11:00,6,9
2021/4/21,11:30,6,9
2021/4/21,12:00,6,7
2021/4/21,12:30,5,3
2021/4/21,13:00,5,3
2021/4/21,13:30,4,1
2021/4/21,14:00,4,1
2021/4/21,14:30,4,2
2021/4/21,15:00,4,2
2021/4/21,15:30,4,1
2021/4/21,16:00,4,2
2021/4/21,16:30,3,3
2021/4/21,17:00,3,4
2021/4/21,17:30,4,8
2021/4/21,18:00,5,9
2021/4/21,18:30,6,9
2021/4/21,19:00,7,11
2021/4/21,19:30,8,12
2021/4/21,20:00,8,11
2021/4/21,20:30,8,9
2021/4/21,21:00,7,7
2021/4/21,21:30,7,5
2021/4/21,22:00,6,3
2021/4/21,22:30,6,3
2021/4/21,23:00,6,3
2021/4/21,23:30,6,3
2021/4/22,0:00,6,3
2021/4/22,0:30,6,2
2021/4/22,1:00,6,1
2021/4/22,1:30,6,2
2021/4/22,2:00,6,2
2021/4/22,2:30,6,3
2021/4/22,3:00,6,4
2021/4/22,3:30,6,6
2021/4/22,4:00,6,12
2021/4/22,4:30,6,15
2021/4/22,5:00,6,15
2021/4/22,5:30,6,13
2021/4/22,6:00,6,10
2021/4/22,6:30,5,10
2021/4/22,7:00,5,12
2021/4/22,7:30,5,7
2021/4/22,8:00,4,5
2021/4/22,8:30,4,2
2021/4/22,9:00,4,2
2021/4/22,9:30,4,1
2021/4/22,10:00,4,1
2021/4/22,10:30,4,1
2021/4/22,11:00,5,1
2021/4/22,11:30,6,1
2021/4/22,12:00,6,2
2021/4/22,12:30,5,2
2021/4/22,13:00,4,1
2021/4/22,13:30,4,1
2021/4/22,14:00,4,1
2021/4/22,14:30,4,0
2021/4/22,15:00,5,0
2021/4/22,15:30,4,2
2021/4/22,16:00,4,3
2021/4/22,16:30,4,2
2021/4/22,17:00,4,4
2021/4/22,17:30,4,5
2021/4/22,18:00,4,7
2021/4/22,18:30,4,9
2021/4/22,19:00,5,12
2021/4/22,19:30,5,13
2021/4/22,20:00,5,10
2021/4/22,20:30,6,10
2021/4/22,21:00,6,10
2021/4/22,21:30,6,10
2021/4/22,22:00,7,8
2021/4/22,22:30,6,7
2021/4/22,23:00,6,6
2021/4/22,23:30,6,4
2021/4/23,0:00,6,6
2021/4/23,0:30,6,4
2021/4/23,1:00,6,4
2021/4/23,1:30,6,4
2021/4/23,2:00,6,6
2021/4/23,2:30,6,12
2021/4/23,3:00,6,10
2021/4/23,3:30,6,11
2021/4/23,4:00,6,6
2021/4/23,4:30,5,4
2021/4/23,5:00,5,2
2021/4/23,5:30,5,2
2021/4/23,6:00,5,1
2021/4/23,6:30,5,2
2021/4/23,7:00,5,4
2021/4/23,7:30,5,6
2021/4/23,8:00,6,6
2021/4/23,8:30,8,9
2021/4/23,9:00,11,20
2021/4/23,9:30,17,23
2021/4/23,10:00,21,24
2021/4/23,10:30,25,33
2021/4/23,11:00,29,41
2021/4/23,11:30,33,39
2021/4/23,12:00,37,33
2021/4/23,12:30,41,30
2021/4/23,13:00,44,31
2021/4/23,13:30,44,29
2021/4/23,14:00,43,31
2021/4/23,14:30,41,29
2021/4/23,15:00,39,27
2021/4/23,15:30,37,25
2021/4/23,16:00,36,28
2021/4/23,16:30,34,31
2021/4/23,17:00,33,30
2021/4/23,17:30,31,31
2021/4/23,18:00,29,31
2021/4/23,18:30,28,29
2021/4/23,19:00,27,29
2021/4/23,19:30,27,26
2021/4/23,20:00,27,25
2021/4/23,20:30,26,25
2021/4/23,21:00,25,23
2021/4/23,21:30,25,23
2021/4/23,22:00,24,24
2021/4/23,22:30,25,29
2021/4/23,23:00,26,28
2021/4/23,23:30,27,30
2021/4/24,0:00,30,28